AST,Max TemperatureF,Mean TemperatureF,Min TemperatureF,Max Dew PointF,MeanDew PointF,Min DewpointF,Max Humidity, Mean Humidity, Min Humidity, Max Sea Level PressureIn, Mean Sea Level PressureIn, Min Sea Level PressureIn, Max VisibilityMiles, Mean VisibilityMiles, Min VisibilityMiles, Max Wind SpeedMPH, Mean Wind SpeedMPH, Max Gust SpeedMPH,PrecipitationIn, CloudCover, Events, WindDirDegrees
2011-11-1,48,40,33,36,31,27,93,72,50,30.43,30.40,30.37,15,15,15,12,6,,0.00,4,,247
2011-11-2,50,42,35,39,35,28,100,75,53,30.38,30.32,30.25,15,15,12,14,6,18,0.00,1,Fog,228
2011-11-3,53,47,41,41,37,32,87,71,47,30.23,29.99,29.78,15,15,15,17,9,25,0.00,4,,216
2011-11-4,48,40,33,45,37,28,100,83,61,29.90,29.78,29.71,15,13,6,16,8,23,0.00,7,Rain-Snow,329
2011-11-5,35,32,30,32,26,19,93,74,56,30.34,30.17,29.92,15,13,6,23,13,31,0.00,7,Snow,341
2011-11-6,50,40,30,32,26,21,75,58,35,30.33,30.22,30.12,15,15,15,18,9,30,0.00,2,,263
2011-11-7,50,42,35,43,33,27,87,66,40,30.19,30.11,29.97,15,15,15,13,8,18,0.00,4,,240
2011-11-8,55,45,33,43,38,32,93,71,51,30.19,30.04,29.95,15,15,15,16,9,21,0.00,2,,284
2011-11-9,51,42,33,39,36,32,93,75,54,30.27,30.24,30.18,15,15,15,7,4,,0.00,5,,277
2011-11-10,59,52,44,50,43,39,94,74,54,30.24,30.13,29.92,15,15,15,15,8,21,0.00,6,,157
2011-11-11,60,51,42,59,55,41,100,94,88,29.89,29.36,29.00,15,8,1,31,18,44,0.00,8,Rain,174
2011-11-12,42,38,35,39,29,25,93,69,53,29.99,29.71,29.20,15,15,10,24,17,34,0.00,6,,260
2011-11-13,50,44,39,43,36,32,87,74,58,30.19,30.12,30.00,15,15,15,13,7,,0.00,5,,220
2011-11-14,57,52,46,50,48,43,93,84,72,30.07,29.84,29.72,15,15,15,17,14,23,0.00,7,Rain,202
2011-11-15,55,52,44,54,49,41,100,90,82,29.78,29.65,29.54,15,12,2,14,10,22,0.00,7,Rain,225
2011-11-16,51,45,39,45,39,36,93,76,58,30.01,29.93,29.80,15,15,7,14,9,,0.00,4,Rain,226
2011-11-17,51,44,35,50,42,34,100,88,66,29.76,29.63,29.56,15,11,2,14,7,22,0.00,8,Fog-Rain-Snow,319
2011-11-18,35,32,28,34,27,19,100,81,64,30.19,29.82,29.52,15,12,2,20,11,30,0.00,5,Rain-Snow,298
2011-11-19,46,37,28,39,30,19,87,72,60,30.33,30.23,30.16,15,15,15,23,9,29,0.00,5,,234
2011-11-20,55,48,42,46,42,32,87,79,61,30.14,29.93,29.74,15,15,15,23,13,33,0.00,6,Rain,237
2011-11-21,41,34,24,30,21,16,70,64,55,30.35,30.21,29.98,15,15,10,16,10,22,0.00,6,Snow,310
2011-11-22,30,26,21,18,15,12,80,66,51,30.39,30.35,30.32,15,15,15,9,6,,0.00,2,,284
2011-11-23,32,28,24,30,21,12,93,76,59,30.35,30.15,29.82,15,7,0,24,8,34,0.00,7,Snow,68
2011-11-24,33,30,24,32,27,21,100,84,70,30.04,29.91,29.77,15,10,1,28,19,37,0.00,7,Snow,2
2011-11-25,42,33,24,39,31,21,100,86,75,30.07,29.98,29.85,15,15,15,16,8,21,0.00,6,,221
2011-11-26,46,40,35,41,35,28,93,79,66,30.28,30.03,29.84,15,15,15,14,10,22,0.00,6,,296
2011-11-27,37,34,32,28,27,25,81,76,70,30.46,30.40,30.29,15,15,15,10,5,,0.00,6,,51
2011-11-28,53,45,37,50,41,30,100,85,66,30.33,30.02,29.84,15,13,6,21,16,31,0.00,7,Rain,219
2011-11-29,44,38,32,43,33,28,93,78,66,30.27,30.19,30.10,15,15,15,13,7,,0.00,6,,227
2011-11-30,59,50,42,57,50,41,100,94,82,30.14,29.88,29.63,15,13,5,25,13,32,0.00,7,Rain,177